Regional Weather Roundup
Issued by NWS Charleston, WV

Home | Current Version | Previous Version | Graphics & Text | Print | Product List | Glossary On
Versions: 1 2 3 4 5 6 7 8 9 10 11 12 13 14 15 16 17 18 19 20 21 22 23 24 25 26 27
000
ASUS41 KRLX 171510
RWRRLX
West Virginia Regional Weather Roundup
National Weather Service Charleston WV
1100 AM EDT THU AUG 17 2017

Note: "fair" indicates few or no clouds below 12,000 feet with no
significant weather and/or obstructions to visibility.

WVZ003-171600-
Northern Panhandle of West Virginia

CITY           SKY/WX    TMP DP  RH WIND       PRES   REMARKS
WHEELING       SUNNY     81  69  67 SW8       30.01F
$$

WVZ009-171600-
Northwest West Virginia

CITY           SKY/WX    TMP DP  RH WIND       PRES   REMARKS
PARKERSBURG    MOSUNNY   82  73  74 S12       30.03S
$$

WVZ006-171600-
Western West Virginia

CITY           SKY/WX    TMP DP  RH WIND       PRES   REMARKS
HUNTINGTON     MOSUNNY   83  74  74 S6        30.00F
$$

WVZ015-171600-
West Central West Virginia

CITY           SKY/WX    TMP DP  RH WIND       PRES   REMARKS
CHARLESTON     MOSUNNY   82  72  71 SW7       30.03F
$$

WVZ022-031-171600-
North Central West Virginia

CITY           SKY/WX    TMP DP  RH WIND       PRES   REMARKS
CLARKSBURG     SUNNY     81  68  64 SW8       30.04F
MORGANTOWN     CLOUDY    81  68  64 VRB7      30.04F
$$

WVZ025-035-042-045-171600-
Southern West Virginia

CITY           SKY/WX    TMP DP  RH WIND       PRES   REMARKS
BECKLEY        PTSUNNY   77  70  79 W5        30.13F
LOGAN          PTSUNNY   79  73  83 VRB6      30.08S
BLUEFIELD      CLOUDY    76  67  73 NW8       30.16F
LEWISBURG      MOSUNNY   74  67  79 CALM      30.13F
$$

WVZ047-171600-
Northern Mountains of West Virginia

CITY           SKY/WX    TMP DP  RH WIND       PRES   REMARKS
ELKINS         SUNNY     77  66  68 CALM      30.10F
$$

WVZ052-171600-
Eastern Panhandle of West Virginia

CITY           SKY/WX    TMP DP  RH WIND       PRES   REMARKS
MARTINSBURG    SUNNY     79  67  66 CALM      30.03F
PETERSBURG     SUNNY     80  72  75 CALM      30.05F
$$




USA.gov is the U.S. government's official web portal to all federal, state and local government web resources and services.